,,,PA_Meas_PMT16A,,PR_Meas_QMR101_102,,RH_Meas_QMH101,,SR_Meas_QMS101,,TA_Meas_QMH101,,GenWind,,GenWind,
date,time,status,PA,status,PR,status,RH,status,SR,status,TA,status,DirAvg,status,SpdAvg,
2012-05-19, 00:00:04,VALID,1009.51,VALID,0,VALID,104,VALID,0,VALID,24.8244,VALID,59,VALID,0,
2012-05-19, 00:01:04,VALID,1009.52,VALID,0,VALID,104,VALID,0,VALID,24.8049,VALID,59,VALID,0,
2012-05-19, 00:02:04,VALID,1009.5,VALID,0,VALID,104,VALID,0,VALID,24.8049,VALID,59,VALID,0,
2012-05-19, 00:03:04,VALID,1009.48,VALID,0,VALID,104,VALID,0,VALID,24.7854,VALID,59,VALID,0,
2012-05-19, 00:04:04,VALID,1009.45,VALID,0,VALID,104,VALID,0,VALID,24.7854,VALID,59,VALID,0,
2012-05-19, 00:05:04,VALID,1009.44,VALID,0,VALID,104,VALID,0,VALID,24.764,VALID,59,VALID,0,
2012-05-19, 00:06:04,VALID,1009.43,VALID,0,VALID,104,VALID,0,VALID,24.8049,VALID,59,VALID,0,
2012-05-19, 00:07:04,VALID,1009.42,VALID,0,VALID,104,VALID,0,VALID,24.8244,VALID,59,VALID,0,
2012-05-19, 00:08:04,VALID,1009.41,VALID,0,VALID,104,VALID,0,VALID,24.8633,VALID,59,VALID,0,
2012-05-19, 00:09:04,VALID,1009.39,VALID,0,VALID,104,VALID,0,VALID,24.8828,VALID,59,VALID,0,
2012-05-19, 00:10:04,VALID,1009.4,VALID,0,VALID,104,VALID,0,VALID,24.9004,VALID,59,VALID,0,
2012-05-19, 00:11:04,VALID,1009.42,VALID,0,VALID,104,VALID,0,VALID,24.9413,VALID,59,VALID,0,
2012-05-19, 00:12:04,VALID,1009.44,VALID,0,VALID,104,VALID,0,VALID,24.9218,VALID,59,VALID,0,
2012-05-19, 00:13:04,VALID,1009.45,VALID,0,VALID,104,VALID,0,VALID,24.9218,VALID,59,VALID,0,
2012-05-19, 00:14:04,VALID,1009.46,VALID,0,VALID,104,VALID,0,VALID,24.9023,VALID,59,VALID,0,
2012-05-19, 00:15:04,VALID,1009.48,VALID,0,VALID,104,VALID,0,VALID,24.9023,VALID,59,VALID,0,
2012-05-19, 00:16:04,VALID,1009.5,VALID,0,VALID,104,VALID,0,VALID,24.8615,VALID,59,VALID,0,
2012-05-19, 00:17:04,VALID,1009.47,VALID,0,VALID,104,VALID,0,VALID,24.8828,VALID,59,VALID,0,
2012-05-19, 00:18:04,VALID,1009.46,VALID,0,VALID,104,VALID,0,VALID,24.8615,VALID,59,VALID,0,
2012-05-19, 00:19:04,VALID,1009.45,VALID,0,VALID,104,VALID,0,VALID,24.8633,VALID,59,VALID,0,
2012-05-19, 00:20:04,VALID,1009.43,VALID,0,VALID,104,VALID,0.112112,VALID,24.8828,VALID,59,VALID,0,
2012-05-19, 00:21:04,VALID,1009.41,VALID,0,VALID,104,VALID,0,VALID,24.8828,VALID,59,VALID,0,
2012-05-19, 00:22:04,VALID,1009.42,VALID,0,VALID,104,VALID,0,VALID,24.8828,VALID,59,VALID,0,
2012-05-19, 00:23:04,VALID,1009.39,VALID,0,VALID,104,VALID,0,VALID,24.8828,VALID,59,VALID,0,
2012-05-19, 00:24:04,VALID,1009.35,VALID,0,VALID,104,VALID,0,VALID,24.8847,VALID,59,VALID,0,
2012-05-19, 00:25:04,VALID,1009.34,VALID,0,VALID,104,VALID,0,VALID,24.8847,VALID,59,VALID,0,
2012-05-19, 00:26:04,VALID,1009.3,VALID,0,VALID,104,VALID,0,VALID,24.8633,VALID,59,VALID,0,
2012-05-19, 00:27:04,VALID,1009.33,VALID,0,VALID,104,VALID,0,VALID,24.8633,VALID,59,VALID,0,
2012-05-19, 00:28:04,VALID,1009.28,VALID,0,VALID,104,VALID,0,VALID,24.8438,VALID,59,VALID,0,
2012-05-19, 00:29:04,VALID,1009.28,VALID,0,VALID,104,VALID,0,VALID,24.8633,VALID,59,VALID,0,
2012-05-19, 00:30:04,VALID,1009.24,VALID,0,VALID,104,VALID,0,VALID,24.8633,VALID,59,VALID,0,
2012-05-19, 00:31:04,VALID,1009.2,VALID,0,VALID,104,VALID,0,VALID,24.9042,VALID,59,VALID,0,
2012-05-19, 00:32:04,VALID,1009.18,VALID,0,VALID,104,VALID,0,VALID,24.8828,VALID,59,VALID,0,
2012-05-19, 00:33:04,VALID,1009.19,VALID,0,VALID,104,VALID,0,VALID,24.9218,VALID,59,VALID,0,
2012-05-19, 00:34:04,VALID,1009.11,VALID,0,VALID,104,VALID,0,VALID,24.9413,VALID,59,VALID,0,
2012-05-19, 00:35:04,VALID,1009.09,VALID,0,VALID,104,VALID,0,VALID,24.9413,VALID,59,VALID,0,
2012-05-19, 00:36:04,VALID,1009.04,VALID,0,VALID,104,VALID,0,VALID,24.9413,VALID,59,VALID,0,
2012-05-19, 00:37:04,VALID,1008.99,VALID,0,VALID,104,VALID,0,VALID,24.9413,VALID,59,VALID,0,
2012-05-19, 00:38:04,VALID,1009,VALID,0,VALID,104,VALID,0,VALID,24.9413,VALID,59,VALID,0,
2012-05-19, 00:39:05,VALID,1008.94,VALID,0,VALID,104,VALID,0,VALID,24.9413,VALID,59,VALID,0,
2012-05-19, 00:40:05,VALID,1008.94,VALID,0,VALID,104,VALID,0,VALID,24.9413,VALID,59,VALID,0,
2012-05-19, 00:41:05,VALID,1008.91,VALID,0,VALID,104,VALID,0,VALID,24.9413,VALID,59,VALID,0,
2012-05-19, 00:42:05,VALID,1008.92,VALID,0,VALID,104,VALID,0,VALID,24.9803,VALID,59,VALID,0,
2012-05-19, 00:43:05,VALID,1008.9,VALID,0,VALID,104,VALID,0,VALID,24.9803,VALID,59,VALID,0,
2012-05-19, 00:44:05,VALID,1008.91,VALID,0,VALID,104,VALID,0,VALID,24.9608,VALID,59,VALID,0,
2012-05-19, 00:45:05,VALID,1008.93,VALID,0,VALID,104,VALID,0,VALID,24.9413,VALID,59,VALID,0.378906,
2012-05-19, 00:46:05,VALID,1008.94,VALID,0,VALID,104,VALID,0,VALID,24.9199,VALID,59,VALID,0.399609,
2012-05-19, 00:47:05,VALID,1008.92,VALID,0,VALID,104,VALID,0,VALID,24.9218,VALID,59,VALID,0.333984,
2012-05-19, 00:48:05,VALID,1008.93,VALID,0,VALID,104,VALID,0,VALID,24.9218,VALID,59,VALID,0.173047,
2012-05-19, 00:49:05,VALID,1008.92,VALID,0,VALID,104,VALID,0,VALID,24.9218,VALID,59,VALID,0,
2012-05-19, 00:50:05,VALID,1008.89,VALID,0,VALID,104,VALID,0,VALID,24.9218,VALID,59,VALID,0,
2012-05-19, 00:51:05,VALID,1008.9,VALID,0,VALID,104,VALID,0,VALID,24.9023,VALID,59,VALID,0,
2012-05-19, 00:52:05,VALID,1008.88,VALID,0,VALID,104,VALID,0,VALID,24.9023,VALID,59,VALID,0,
2012-05-19, 00:53:05,VALID,1008.87,VALID,0,VALID,104,VALID,0,VALID,24.9023,VALID,59,VALID,0,
2012-05-19, 00:54:05,VALID,1008.86,VALID,0,VALID,104,VALID,0,VALID,24.9023,VALID,59,VALID,0,
2012-05-19, 00:55:05,VALID,1008.85,VALID,0,VALID,104,VALID,0,VALID,24.9023,VALID,59,VALID,0,
2012-05-19, 00:56:05,VALID,1008.85,VALID,0,VALID,104,VALID,0,VALID,24.9023,VALID,59,VALID,0,
2012-05-19, 00:57:05,VALID,1008.83,VALID,0,VALID,104,VALID,0,VALID,24.9023,VALID,59,VALID,0,
2012-05-19, 00:58:05,VALID,1008.81,VALID,0,VALID,104,VALID,0,VALID,24.9237,VALID,59,VALID,0,
2012-05-19, 00:59:05,VALID,1008.82,VALID,0,VALID,104,VALID,0,VALID,24.9218,VALID,59,VALID,0,
2012-05-19, 01:00:05,VALID,1008.83,VALID,0,VALID,104,VALID,0,VALID,24.9413,VALID,59,VALID,0,
2012-05-19, 01:01:05,VALID,1008.83,VALID,0,VALID,104,VALID,0,VALID,24.9608,VALID,59,VALID,0,
2012-05-19, 01:02:05,VALID,1008.84,VALID,0,VALID,104,VALID,0,VALID,24.9394,VALID,59,VALID,0,
2012-05-19, 01:03:05,VALID,1008.82,VALID,0,VALID,104,VALID,0,VALID,24.9803,VALID,59,VALID,0,
2012-05-19, 01:04:05,VALID,1008.78,VALID,0,VALID,104,VALID,0,VALID,25.0017,VALID,59,VALID,0,
2012-05-19, 01:05:05,VALID,1008.78,VALID,0,VALID,104,VALID,0,VALID,24.9608,VALID,59,VALID,0,
2012-05-19, 01:06:05,VALID,1008.77,VALID,0,VALID,104,VALID,0,VALID,24.9413,VALID,59,VALID,0,
2012-05-19, 01:07:05,VALID,1008.77,VALID,0,VALID,104,VALID,0,VALID,24.9608,VALID,59,VALID,0,
2012-05-19, 01:08:05,VALID,1008.76,VALID,0,VALID,104,VALID,0,VALID,24.9413,VALID,59,VALID,0,
2012-05-19, 01:09:05,VALID,1008.74,VALID,0,VALID,104,VALID,0,VALID,24.9413,VALID,59,VALID,0,
2012-05-19, 01:10:05,VALID,1008.75,VALID,0,VALID,104,VALID,0,VALID,24.9218,VALID,59,VALID,0,
2012-05-19, 01:11:05,VALID,1008.75,VALID,0,VALID,104,VALID,0,VALID,24.9218,VALID,59,VALID,0,
2012-05-19, 01:12:05,VALID,1008.74,VALID,0,VALID,104,VALID,0,VALID,24.9218,VALID,59,VALID,0,
2012-05-19, 01:13:05,VALID,1008.76,VALID,0,VALID,104,VALID,0,VALID,24.9218,VALID,59,VALID,0,
2012-05-19, 01:14:05,VALID,1008.72,VALID,0,VALID,104,VALID,0,VALID,24.9023,VALID,59,VALID,0,
2012-05-19, 01:15:05,VALID,1008.75,VALID,0,VALID,104,VALID,0,VALID,24.9023,VALID,59,VALID,0,
2012-05-19, 01:16:05,VALID,1008.74,VALID,0,VALID,104,VALID,0,VALID,24.9237,VALID,59,VALID,0,
2012-05-19, 01:17:05,VALID,1008.76,VALID,0,VALID,104,VALID,0,VALID,24.9023,VALID,59,VALID,0,
2012-05-19, 01:18:05,VALID,1008.73,VALID,0,VALID,104,VALID,0,VALID,24.9023,VALID,59,VALID,0,
2012-05-19, 01:19:05,VALID,1008.77,VALID,0,VALID,104,VALID,0,VALID,24.9218,VALID,59,VALID,0,
2012-05-19, 01:20:05,VALID,1008.77,VALID,0,VALID,104,VALID,0,VALID,24.9627,VALID,59,VALID,0.492969,
2012-05-19, 01:21:05,VALID,1008.8,VALID,0,VALID,104,VALID,0,VALID,24.9608,VALID,59,VALID,0.391797,
2012-05-19, 01:22:05,VALID,1008.78,VALID,0,VALID,104,VALID,0,VALID,24.9803,VALID,59,VALID,0.541016,
2012-05-19, 01:23:05,VALID,1008.78,VALID,0,VALID,104,VALID,0,VALID,25.0193,VALID,59,VALID,0.720312,
2012-05-19, 01:24:05,VALID,1008.8,VALID,0,VALID,104,VALID,0,VALID,25.0778,VALID,59,VALID,0.694922,
2012-05-19, 01:25:05,VALID,1008.82,VALID,0,VALID,104,VALID,0,VALID,25.1576,VALID,59,VALID,0.264453,
2012-05-19, 01:26:05,VALID,1008.82,VALID,0,VALID,104,VALID,0,VALID,25.1557,VALID,59,VALID,0.338672,
2012-05-19, 01:27:05,VALID,1008.8,VALID,0,VALID,104,VALID,0,VALID,25.1752,VALID,40,VALID,0.647656,
2012-05-19, 01:28:05,VALID,1008.79,VALID,0,VALID,104,VALID,0,VALID,25.1947,VALID,40,VALID,0.630078,
2012-05-19, 01:29:05,VALID,1008.83,VALID,0,VALID,104,VALID,0,VALID,25.2746,VALID,40,VALID,0.302734,
2012-05-19, 01:30:05,VALID,1008.8,VALID,0,VALID,104,VALID,0,VALID,25.2941,VALID,40,VALID,0.5375,
2012-05-19, 01:31:05,VALID,1008.79,VALID,0,VALID,104,VALID,0,VALID,25.2941,VALID,40,VALID,0.335156,
2012-05-19, 01:32:05,VALID,1008.79,VALID,0,VALID,104,VALID,0,VALID,25.2727,VALID,40,VALID,0.202734,
2012-05-19, 01:33:05,VALID,1008.78,VALID,0,VALID,104,VALID,0,VALID,25.2922,VALID,40,VALID,0.341016,
2012-05-19, 01:34:05,VALID,1008.77,VALID,0,VALID,104,VALID,0,VALID,25.2727,VALID,40,VALID,0.355469,
2012-05-19, 01:35:05,VALID,1008.76,VALID,0,VALID,104,VALID,0,VALID,25.2727,VALID,40,VALID,0.375781,
2012-05-19, 01:36:05,VALID,1008.73,VALID,0,VALID,104,VALID,0,VALID,25.2727,VALID,40,VALID,0.488672,
2012-05-19, 01:37:05,VALID,1008.74,VALID,0,VALID,104,VALID,0,VALID,25.2941,VALID,40,VALID,0.3125,
2012-05-19, 01:38:05,VALID,1008.71,VALID,0,VALID,104,VALID,0,VALID,25.2532,VALID,40,VALID,0.327344,
2012-05-19, 01:39:05,VALID,1008.75,VALID,0,VALID,104,VALID,0,VALID,25.2337,VALID,40,VALID,0.419922,
2012-05-19, 01:40:05,VALID,1008.73,VALID,0,VALID,104,VALID,0,VALID,25.1947,VALID,40,VALID,0.364062,
2012-05-19, 01:41:05,VALID,1008.73,VALID,0,VALID,104,VALID,0,VALID,25.1752,VALID,40,VALID,0.316797,
2012-05-19, 01:42:05,VALID,1008.73,VALID,0,VALID,104,VALID,0,VALID,25.1362,VALID,40,VALID,0.407031,
2012-05-19, 01:43:05,VALID,1008.74,VALID,0,VALID,104,VALID,0,VALID,25.1167,VALID,40,VALID,0.417188,
2012-05-19, 01:44:05,VALID,1008.73,VALID,0,VALID,104,VALID,0,VALID,25.0778,VALID,40,VALID,0.420703,
2012-05-19, 01:45:05,VALID,1008.72,VALID,0,VALID,104,VALID,0,VALID,25.0797,VALID,40,VALID,0.510547,
2012-05-19, 01:46:05,VALID,1008.71,VALID,0,VALID,104,VALID,0,VALID,25.0388,VALID,40,VALID,0.447266,
2012-05-19, 01:47:05,VALID,1008.71,VALID,0,VALID,104,VALID,0,VALID,25.0407,VALID,40,VALID,0.54375,
2012-05-19, 01:48:05,VALID,1008.68,VALID,0,VALID,104,VALID,0,VALID,25.0407,VALID,40,VALID,0.298438,
2012-05-19, 01:49:05,VALID,1008.68,VALID,0,VALID,104,VALID,0,VALID,25.0212,VALID,40,VALID,0.00429688,
2012-05-19, 01:50:05,VALID,1008.64,VALID,0,VALID,104,VALID,0,VALID,25.0212,VALID,40,VALID,0,
2012-05-19, 01:51:05,VALID,1008.62,VALID,0,VALID,104,VALID,0,VALID,24.9608,VALID,40,VALID,0,
2012-05-19, 01:52:05,VALID,1008.63,VALID,0,VALID,104,VALID,0,VALID,24.9413,VALID,40,VALID,0,
2012-05-19, 01:53:05,VALID,1008.6,VALID,0,VALID,104,VALID,0,VALID,24.9218,VALID,40,VALID,0,
2012-05-19, 01:54:05,VALID,1008.57,VALID,0,VALID,104,VALID,0,VALID,24.9023,VALID,40,VALID,0.00390625,
2012-05-19, 01:55:05,VALID,1008.56,VALID,0,VALID,104,VALID,0,VALID,24.8633,VALID,40,VALID,0.220703,
2012-05-19, 01:56:05,VALID,1008.54,VALID,0,VALID,104,VALID,0,VALID,24.8633,VALID,40,VALID,0,
2012-05-19, 01:57:05,VALID,1008.56,VALID,0,VALID,104,VALID,0,VALID,24.8457,VALID,40,VALID,0,
2012-05-19, 01:58:05,VALID,1008.54,VALID,0,VALID,104,VALID,0,VALID,24.8262,VALID,40,VALID,0,
2012-05-19, 01:59:05,VALID,1008.51,VALID,0,VALID,104,VALID,0,VALID,24.8067,VALID,40,VALID,0,
2012-05-19, 02:00:05,VALID,1008.53,VALID,0,VALID,104,VALID,0,VALID,24.7659,VALID,40,VALID,0,
2012-05-19, 02:01:05,VALID,1008.48,VALID,0,VALID,104,VALID,0,VALID,24.7678,VALID,40,VALID,0,
2012-05-19, 02:02:05,VALID,1008.48,VALID,0,VALID,104,VALID,0,VALID,24.7483,VALID,40,VALID,0,
2012-05-19, 02:03:05,VALID,1008.48,VALID,0,VALID,104,VALID,0,VALID,24.7288,VALID,40,VALID,0,
2012-05-19, 02:04:05,VALID,1008.49,VALID,0,VALID,104,VALID,0,VALID,24.6879,VALID,40,VALID,0,
2012-05-19, 02:05:05,VALID,1008.43,VALID,0,VALID,104,VALID,0,VALID,24.6684,VALID,40,VALID,0,
2012-05-19, 02:06:05,VALID,1008.43,VALID,0,VALID,104,VALID,0,VALID,24.6703,VALID,40,VALID,0,
2012-05-19, 02:07:05,VALID,1008.41,VALID,0,VALID,104,VALID,0,VALID,24.6703,VALID,40,VALID,0,
2012-05-19, 02:08:05,VALID,1008.4,VALID,0,VALID,104,VALID,0,VALID,24.6489,VALID,40,VALID,0,
2012-05-19, 02:09:05,VALID,1008.37,VALID,0,VALID,104,VALID,0,VALID,24.6489,VALID,40,VALID,0,
2012-05-19, 02:10:05,VALID,1008.35,VALID,0,VALID,104,VALID,0,VALID,24.6276,VALID,40,VALID,0,
2012-05-19, 02:11:05,VALID,1008.35,VALID,0,VALID,104,VALID,0,VALID,24.6489,VALID,40,VALID,0,
2012-05-19, 02:12:05,VALID,1008.37,VALID,0,VALID,104,VALID,0,VALID,24.6294,VALID,40,VALID,0,
2012-05-19, 02:13:05,VALID,1008.36,VALID,0,VALID,104,VALID,0,VALID,24.6081,VALID,40,VALID,0,
2012-05-19, 02:14:05,VALID,1008.36,VALID,0,VALID,104,VALID,0,VALID,24.6099,VALID,40,VALID,0,
2012-05-19, 02:15:05,VALID,1008.37,VALID,0,VALID,104,VALID,0,VALID,24.5691,VALID,40,VALID,0,
2012-05-19, 02:16:05,VALID,1008.37,VALID,0,VALID,104,VALID,0,VALID,24.5691,VALID,40,VALID,0,
2012-05-19, 02:17:05,VALID,1008.39,VALID,0,VALID,104,VALID,0,VALID,24.5496,VALID,40,VALID,0,
2012-05-19, 02:18:05,VALID,1008.39,VALID,0,VALID,104,VALID,0,VALID,24.5515,VALID,40,VALID,0,
2012-05-19, 02:19:05,VALID,1008.38,VALID,0,VALID,104,VALID,0,VALID,24.5515,VALID,40,VALID,0,
2012-05-19, 02:20:05,VALID,1008.4,VALID,0,VALID,104,VALID,0,VALID,24.5301,VALID,40,VALID,0,
2012-05-19, 02:21:05,VALID,1008.45,VALID,0,VALID,104,VALID,0,VALID,24.5515,VALID,40,VALID,0,
2012-05-19, 02:22:05,VALID,1008.46,VALID,0,VALID,104,VALID,0,VALID,24.532,VALID,40,VALID,0,
2012-05-19, 02:23:05,VALID,1008.48,VALID,0,VALID,104,VALID,0,VALID,24.493,VALID,40,VALID,0.481641,
2012-05-19, 02:24:05,VALID,1008.49,VALID,0,VALID,104,VALID,0,VALID,24.4949,VALID,40,VALID,0.391016,
2012-05-19, 02:25:05,VALID,1008.53,VALID,0,VALID,104,VALID,0,VALID,24.454,VALID,40,VALID,0.315234,
2012-05-19, 02:26:05,VALID,1008.53,VALID,0,VALID,104,VALID,0,VALID,24.4345,VALID,40,VALID,0.379297,
2012-05-19, 02:27:05,VALID,1008.55,VALID,0,VALID,104,VALID,0,VALID,24.4345,VALID,40,VALID,0.0949219,
2012-05-19, 02:28:05,VALID,1008.56,VALID,0,VALID,104,VALID,0,VALID,24.4345,VALID,40,VALID,0,
2012-05-19, 02:29:05,VALID,1008.57,VALID,0,VALID,104,VALID,0,VALID,24.4345,VALID,40,VALID,0,
2012-05-19, 02:30:05,VALID,1008.57,VALID,0,VALID,104,VALID,0,VALID,24.4345,VALID,40,VALID,0,
2012-05-19, 02:31:05,VALID,1008.56,VALID,0,VALID,104,VALID,0,VALID,24.4345,VALID,40,VALID,0,
2012-05-19, 02:32:05,VALID,1008.57,VALID,0,VALID,104,VALID,0,VALID,24.454,VALID,40,VALID,0.0683594,
2012-05-19, 02:33:05,VALID,1008.56,VALID,0,VALID,104,VALID,0,VALID,24.4327,VALID,40,VALID,0,
2012-05-19, 02:34:05,VALID,1008.57,VALID,0,VALID,104,VALID,0,VALID,24.4327,VALID,40,VALID,0,
2012-05-19, 02:35:05,VALID,1008.58,VALID,0,VALID,104,VALID,0,VALID,24.4559,VALID,40,VALID,0.00390625,
2012-05-19, 02:36:05,VALID,1008.55,VALID,0,VALID,104,VALID,0,VALID,24.4345,VALID,40,VALID,0.451953,
2012-05-19, 02:37:05,VALID,1008.57,VALID,0,VALID,104,VALID,0,VALID,24.454,VALID,40,VALID,0.447656,
2012-05-19, 02:38:05,VALID,1008.59,VALID,0,VALID,104,VALID,0,VALID,24.4132,VALID,40,VALID,0.210547,
2012-05-19, 02:39:05,VALID,1008.57,VALID,0,VALID,104,VALID,0,VALID,24.415,VALID,40,VALID,0.321875,
2012-05-19, 02:40:05,VALID,1008.53,VALID,0,VALID,104,VALID,0,VALID,24.415,VALID,40,VALID,0.243359,
2012-05-19, 02:41:05,VALID,1008.58,VALID,0,VALID,104,VALID,0,VALID,24.415,VALID,40,VALID,0.373828,
2012-05-19, 02:42:05,VALID,1008.54,VALID,0,VALID,104,VALID,0,VALID,24.3956,VALID,40,VALID,0.708203,
2012-05-19, 02:43:05,VALID,1008.54,VALID,0,VALID,104,VALID,0.112112,VALID,24.4345,VALID,40,VALID,0.435156,
2012-05-19, 02:44:05,VALID,1008.54,VALID,0,VALID,104,VALID,0,VALID,24.415,VALID,40,VALID,0.675781,
2012-05-19, 02:45:05,VALID,1008.53,VALID,0,VALID,104,VALID,0,VALID,24.3937,VALID,40,VALID,0.611328,
2012-05-19, 02:46:05,VALID,1008.51,VALID,0,VALID,104,VALID,0,VALID,24.454,VALID,40,VALID,0.493359,
2012-05-19, 02:47:05,VALID,1008.49,VALID,0,VALID,104,VALID,0,VALID,24.454,VALID,40,VALID,0.428516,
2012-05-19, 02:48:05,VALID,1008.5,VALID,0,VALID,104,VALID,0,VALID,24.4345,VALID,40,VALID,0.310937,
2012-05-19, 02:49:05,VALID,1008.51,VALID,0,VALID,104,VALID,0.112112,VALID,24.415,VALID,40,VALID,0.00195313,
2012-05-19, 02:50:05,VALID,1008.51,VALID,0,VALID,104,VALID,0.112112,VALID,24.415,VALID,40,VALID,0.279687,
2012-05-19, 02:51:05,VALID,1008.52,VALID,0,VALID,104,VALID,0,VALID,24.415,VALID,40,VALID,0.678516,
2012-05-19, 02:52:05,VALID,1008.48,VALID,0,VALID,104,VALID,0,VALID,24.415,VALID,40,VALID,0.458203,
2012-05-19, 02:53:05,VALID,1008.48,VALID,0,VALID,104,VALID,0.112112,VALID,24.4132,VALID,40,VALID,0,
2012-05-19, 02:54:05,VALID,1008.46,VALID,0,VALID,104,VALID,0.112112,VALID,24.3937,VALID,40,VALID,0,
2012-05-19, 02:55:05,VALID,1008.42,VALID,0,VALID,104,VALID,0.112112,VALID,24.4132,VALID,41,VALID,0.285156,
2012-05-19, 02:56:05,VALID,1008.39,VALID,0,VALID,104,VALID,0.112112,VALID,24.4132,VALID,41,VALID,0.00585938,
2012-05-19, 02:57:05,VALID,1008.36,VALID,0,VALID,104,VALID,0.112112,VALID,24.4327,VALID,41,VALID,0.363281,
2012-05-19, 02:58:05,VALID,1008.35,VALID,0,VALID,104,VALID,0.112112,VALID,24.4522,VALID,41,VALID,0.116016,
2012-05-19, 02:59:05,VALID,1008.33,VALID,0,VALID,104,VALID,0.112112,VALID,24.4717,VALID,46,VALID,0.577344,
2012-05-19, 03:00:05,VALID,1008.31,VALID,0,VALID,104,VALID,0.112112,VALID,24.4911,VALID,54,VALID,0.553125,
2012-05-19, 03:01:05,VALID,1008.28,VALID,0,VALID,104,VALID,0.112112,VALID,24.5496,VALID,54,VALID,0.560938,
2012-05-19, 03:02:05,VALID,1008.25,VALID,0,VALID,104,VALID,0.112112,VALID,24.5691,VALID,76,VALID,0.70625,
2012-05-19, 03:03:05,VALID,1008.27,VALID,0,VALID,104,VALID,0.224224,VALID,24.6081,VALID,64,VALID,0.824609,
2012-05-19, 03:04:05,VALID,1008.24,VALID,0,VALID,104,VALID,0.112112,VALID,24.6081,VALID,51,VALID,0.875781,
2012-05-19, 03:05:05,VALID,1008.24,VALID,0,VALID,104,VALID,0.224224,VALID,24.6471,VALID,57,VALID,0.283203,
2012-05-19, 03:06:05,VALID,1008.22,VALID,0,VALID,104,VALID,0.112112,VALID,24.6452,VALID,50,VALID,0.557422,
2012-05-19, 03:07:05,VALID,1008.2,VALID,0,VALID,104,VALID,0.112112,VALID,24.6666,VALID,46,VALID,0.544531,
2012-05-19, 03:08:05,VALID,1008.21,VALID,0,VALID,104,VALID,0,VALID,24.6684,VALID,47,VALID,0.511719,
2012-05-19, 03:09:05,VALID,1008.19,VALID,0,VALID,104,VALID,0,VALID,24.686,VALID,60,VALID,0.431641,
2012-05-19, 03:10:05,VALID,1008.21,VALID,0,VALID,104,VALID,0,VALID,24.7074,VALID,42,VALID,0.439063,
2012-05-19, 03:11:05,VALID,1008.18,VALID,0,VALID,104,VALID,0,VALID,24.7464,VALID,42,VALID,0.191406,
2012-05-19, 03:12:05,VALID,1008.2,VALID,0,VALID,104,VALID,0,VALID,24.7464,VALID,34,VALID,0.512109,
2012-05-19, 03:13:05,VALID,1008.2,VALID,0,VALID,104,VALID,0.112112,VALID,24.7445,VALID,39,VALID,0.268359,
2012-05-19, 03:14:05,VALID,1008.2,VALID,0,VALID,104,VALID,0,VALID,24.7659,VALID,12,VALID,0.637109,
2012-05-19, 03:15:05,VALID,1008.19,VALID,0,VALID,104,VALID,0,VALID,24.7445,VALID,9,VALID,0.414063,
2012-05-19, 03:16:05,VALID,1008.2,VALID,0,VALID,104,VALID,0,VALID,24.7835,VALID,9,VALID,0.500781,
2012-05-19, 03:17:05,VALID,1008.22,VALID,0,VALID,104,VALID,0.112112,VALID,24.8244,VALID,39,VALID,0.525781,
2012-05-19, 03:18:05,VALID,1008.25,VALID,0,VALID,104,VALID,0,VALID,24.8633,VALID,69,VALID,0.695313,
2012-05-19, 03:19:05,VALID,1008.25,VALID,0,VALID,104,VALID,0,VALID,24.9023,VALID,70,VALID,0.483594,
2012-05-19, 03:20:05,VALID,1008.3,VALID,0,VALID,104,VALID,0,VALID,24.9218,VALID,69,VALID,0.342187,
2012-05-19, 03:21:04,VALID,1008.35,VALID,0,VALID,104,VALID,0,VALID,24.9608,VALID,74,VALID,0.834766,
2012-05-19, 03:22:04,VALID,1008.35,VALID,0,VALID,104,VALID,0,VALID,24.9998,VALID,90,VALID,0.869922,
2012-05-19, 03:23:04,VALID,1008.38,VALID,0,VALID,104,VALID,0,VALID,25.0193,VALID,94,VALID,1.59258,
2012-05-19, 03:24:04,VALID,1008.39,VALID,0,VALID,104,VALID,0,VALID,25.0778,VALID,88,VALID,0.976172,
2012-05-19, 03:25:04,VALID,1008.38,VALID,0,VALID,104,VALID,0,VALID,25.0778,VALID,85,VALID,1.19727,
2012-05-19, 03:26:04,VALID,1008.44,VALID,0,VALID,104,VALID,0,VALID,25.1167,VALID,81,VALID,1.04375,
2012-05-19, 03:27:04,VALID,1008.45,VALID,0,VALID,104,VALID,0,VALID,25.1557,VALID,86,VALID,1.81367,
2012-05-19, 03:28:04,VALID,1008.47,VALID,0,VALID,104,VALID,0,VALID,25.1947,VALID,97,VALID,0.973828,
2012-05-19, 03:29:04,VALID,1008.44,VALID,0,VALID,104,VALID,0,VALID,25.2142,VALID,87,VALID,1.35859,
2012-05-19, 03:30:04,VALID,1008.47,VALID,0,VALID,104,VALID,0,VALID,25.2337,VALID,72,VALID,1.46875,
2012-05-19, 03:31:04,VALID,1008.46,VALID,0,VALID,103.909,VALID,0,VALID,25.2532,VALID,85,VALID,0.978516,
2012-05-19, 03:32:04,VALID,1008.47,VALID,0,VALID,103.909,VALID,0,VALID,25.2532,VALID,81,VALID,1.14961,
2012-05-19, 03:33:04,VALID,1008.44,VALID,0,VALID,103.939,VALID,0,VALID,25.2532,VALID,85,VALID,0.994531,
2012-05-19, 03:34:04,VALID,1008.41,VALID,0,VALID,104,VALID,0,VALID,25.2318,VALID,83,VALID,0.908984,
2012-05-19, 03:35:04,VALID,1008.42,VALID,0,VALID,104,VALID,0,VALID,25.2532,VALID,91,VALID,0.952734,
2012-05-19, 03:36:04,VALID,1008.39,VALID,0,VALID,104,VALID,0,VALID,25.2532,VALID,91,VALID,0.320703,
2012-05-19, 03:37:04,VALID,1008.38,VALID,0,VALID,104,VALID,0,VALID,25.2337,VALID,84,VALID,0.417969,
2012-05-19, 03:38:04,VALID,1008.35,VALID,0,VALID,104,VALID,0,VALID,25.2337,VALID,84,VALID,0.375,
2012-05-19, 03:39:04,VALID,1008.34,VALID,0,VALID,104,VALID,0,VALID,25.2142,VALID,84,VALID,0.336719,
2012-05-19, 03:40:04,VALID,1008.33,VALID,0,VALID,104,VALID,0,VALID,25.2142,VALID,84,VALID,0.111719,
2012-05-19, 03:41:04,VALID,1008.3,VALID,0,VALID,104,VALID,0,VALID,25.1733,VALID,84,VALID,0.0871094,
2012-05-19, 03:42:04,VALID,1008.29,VALID,0,VALID,104,VALID,0,VALID,25.2142,VALID,84,VALID,0,
2012-05-19, 03:43:04,VALID,1008.3,VALID,0,VALID,104,VALID,0,VALID,25.1752,VALID,84,VALID,0,
2012-05-19, 03:44:04,VALID,1008.31,VALID,0,VALID,104,VALID,0,VALID,25.1947,VALID,84,VALID,0,
2012-05-19, 03:45:04,VALID,1008.3,VALID,0,VALID,104,VALID,0,VALID,25.1752,VALID,84,VALID,0.154687,
2012-05-19, 03:46:04,VALID,1008.3,VALID,0,VALID,104,VALID,0,VALID,25.1752,VALID,31,VALID,0.592578,
2012-05-19, 03:47:04,VALID,1008.34,VALID,0,VALID,104,VALID,0,VALID,25.1557,VALID,31,VALID,0.240234,
2012-05-19, 03:48:04,VALID,1008.33,VALID,0,VALID,104,VALID,0,VALID,25.1362,VALID,31,VALID,0.332812,
2012-05-19, 03:49:04,VALID,1008.36,VALID,0,VALID,104,VALID,0,VALID,25.0759,VALID,31,VALID,0,
2012-05-19, 03:50:04,VALID,1008.33,VALID,0,VALID,104,VALID,0,VALID,25.0973,VALID,34,VALID,0.516016,
2012-05-19, 03:51:04,VALID,1008.35,VALID,0,VALID,104,VALID,0,VALID,25.0778,VALID,34,VALID,0.220703,
2012-05-19, 03:52:04,VALID,1008.33,VALID,0,VALID,104,VALID,0,VALID,25.0583,VALID,34,VALID,0.287109,
2012-05-19, 03:53:04,VALID,1008.3,VALID,0,VALID,104,VALID,0,VALID,25.0388,VALID,34,VALID,0.234375,
2012-05-19, 03:54:04,VALID,1008.31,VALID,0,VALID,104,VALID,0,VALID,25.0193,VALID,32,VALID,0.119531,
2012-05-19, 03:55:04,VALID,1008.29,VALID,0,VALID,104,VALID,0,VALID,25.0193,VALID,32,VALID,0.612891,
2012-05-19, 03:56:04,VALID,1008.3,VALID,0,VALID,104,VALID,0,VALID,25.0193,VALID,32,VALID,0.378516,
2012-05-19, 03:57:04,VALID,1008.32,VALID,0,VALID,104,VALID,0,VALID,24.9998,VALID,32,VALID,0.366797,
2012-05-19, 03:58:04,VALID,1008.35,VALID,0,VALID,104,VALID,0,VALID,24.9608,VALID,32,VALID,0.553516,
2012-05-19, 03:59:04,VALID,1008.35,VALID,0,VALID,104,VALID,0,VALID,24.9413,VALID,33,VALID,0.670703,
2012-05-19, 04:00:04,VALID,1008.34,VALID,0,VALID,104,VALID,0,VALID,24.9218,VALID,34,VALID,0.245703,
2012-05-19, 04:01:04,VALID,1008.36,VALID,0,VALID,104,VALID,0,VALID,24.9023,VALID,34,VALID,0.312891,